This is the latest recevied weather packets stored in our database for station/object KF0TNT. If no packets are shown the sender has not sent any weather packets the latest 1 day(s).
| Time | Temp. | Humidity | Pressure | Rain* | Wind** | Luminosity | Snow |
|---|---|---|---|---|---|---|---|
| 1778012996 | 1.67° C | 96% | 1013.2 hPa | 0 mm | 0.89 m/s, 339° | 139 W/m² | - |
| 1778012693 | 1.67° C | 96% | 1013.3 hPa | 0 mm | 0.89 m/s, 136° | 140 W/m² | - |
| 1778012389 | 1.67° C | 95% | 1013 hPa | 0 mm | 0.89 m/s, 25° | 193 W/m² | - |
| 1778012086 | 1.67° C | 95% | 1013 hPa | 0.51 mm | 0.89 m/s, 180° | 141 W/m² | - |
| 1778011784 | 1.11° C | 94% | 1013.3 hPa | 0.51 mm | 0.89 m/s, 324° | 173 W/m² | - |
| 1778011482 | 1.67° C | 93% | 1013.4 hPa | 0.51 mm | 0.89 m/s, 112° | 122 W/m² | - |
| 1778011177 | 1.67° C | 94% | 1013.4 hPa | 0.51 mm | 0.45 m/s, 5° | 133 W/m² | - |
| 1778010874 | 1.67° C | 94% | 1013.3 hPa | 0 mm | 0.89 m/s, 330° | 163 W/m² | - |
| 1778010572 | 1.67° C | 94% | 1013.4 hPa | 0 mm | 0.89 m/s, 13° | 174 W/m² | - |
| 1778010269 | 1.67° C | 94% | 1013.4 hPa | 0 mm | 2.24 m/s, 329° | 144 W/m² | - |
| 1778009968 | 1.67° C | 94% | 1013.4 hPa | 0 mm | 2.24 m/s, 359° | 140 W/m² | - |
| 1778009667 | 1.67° C | 94% | 1013.5 hPa | 0 mm | 1.79 m/s, 9° | 140 W/m² | - |
| 1778009364 | 1.67° C | 94% | 1013.5 hPa | 0 mm | 2.68 m/s, 346° | 138 W/m² | - |
| 1778009062 | 1.67° C | 93% | 1013.6 hPa | 0 mm | 1.79 m/s, 352° | 133 W/m² | - |
| 1778008760 | 1.67° C | 93% | 1013.6 hPa | 0 mm | 2.24 m/s, 3° | 135 W/m² | - |
| 1778008458 | 1.67° C | 93% | 1013.6 hPa | 0 mm | 2.24 m/s, 357° | 146 W/m² | - |
| 1778008154 | 1.67° C | 92% | 1013.9 hPa | 0 mm | 1.79 m/s, 340° | 118 W/m² | - |
| 1778007850 | 1.67° C | 92% | 1014 hPa | 0 mm | 2.24 m/s, 333° | 102 W/m² | - |
| 1778007545 | 1.67° C | 92% | 1013.8 hPa | 0 mm | 1.34 m/s, 359° | 117 W/m² | - |
| 1778007243 | 1.67° C | 92% | 1014 hPa | 0 mm | 1.34 m/s, 345° | 137 W/m² | - |
| 1778006939 | 1.67° C | 93% | 1013.8 hPa | 0 mm | 2.68 m/s, 9° | 168 W/m² | - |
| 1778006636 | 1.67° C | 93% | 1014 hPa | 0 mm | 2.24 m/s, 4° | 176 W/m² | - |
| 1778006333 | 1.67° C | 94% | 1013.9 hPa | 0 mm | 1.79 m/s, 1° | 128 W/m² | - |
| 1778006030 | 1.67° C | 93% | 1014 hPa | 0 mm | 1.79 m/s, 343° | 128 W/m² | - |
| 1778005726 | 1.11° C | 93% | 1014.3 hPa | 0 mm | 2.24 m/s, 359° | 124 W/m² | - |
* Rain latest hour (hover to see other rain measurements)
** Current wind speed in m/s (hover to see current wind gust speed)